Morrisville, VT

10:21 AM EST on February 23, 2018 (GMT -0500)
Morrisville Stowe State

Weather History for KMVL - March, 2014

Change the Weather History Date:

Wednesday, March 12, 2014

  Actual Average Record
Temperature  
Mean Temperature 24 °F 27 °F  
Max Temperature 32 °F 38 °F 61 °F (2012)
Min Temperature 15 °F 16 °F 0 °F (2017)
Degree Days  
Heating Degree Days 41 38  
Month to date heating degree days 578 480  
Since 1 July heating degree days 6632 6440  
Cooling Degree Days 0 0  
Month to date cooling degree days 0 0  
Year to date cooling degree days 0 0  
Moisture  
Dew Point 21 °F    
Average Humidity 85    
Maximum Humidity 92    
Minimum Humidity 77    
Precipitation  
Precipitation 0.72 in 0.05 in 0.77 in (2013)
Month to date precipitation 0.93 0.52  
Year to date precipitation 5.53 4.80  
Sea Level Pressure  
Sea Level Pressure 29.57 in    
Wind  
Wind Speed 8 mph (North)    
Max Wind Speed 22 mph    
Max Gust Speed 33 mph    
Visibility 2 miles    
Events Fog , Snow    
T = Trace of Precipitation, MM = Missing Value Source: NWS Daily Summary

Daily Weather History Graph

Daily Weather History Graph

Search for Another Location

Airport or City:

Trip Planner

Search our weather history database for the weather conditions in past years. The results will help you decide how hot, cold, wet, or windy it might be!

Date:

Astronomy

Mar. 12, 2014 Rise Set
Actual Time 7:08 AM EDT 6:52 PM EDT
Civil Twilight 6:39 AM EDT 7:21 PM EDT
Nautical Twilight 6:05 AM EDT 7:55 PM EDT
Astronomical Twilight 5:31 AM EDT 8:29 PM EDT
Moon 3:13 PM EDT (3/12) 4:45 AM EDT (3/12)
Length of Visible Light 12h 42m
Length of Day
11h 44m
Waxing Gibbous, 85% of the Moon is Illuminated
Mar 12
Waxing Gibbous
Mar 16
Full
Mar 23
Last Quarter
Mar 30
New
Apr 7
First Quarter

Hourly Weather History & Observations

Time (EDT) Temp. Windchill Dew Point Humidity Pressure Visibility Wind Dir Wind Speed Gust Speed Precip Events Conditions
12:54 AM 28.0 °F - 25.0 °F 88% 29.73 in 10.0 mi Calm Calm - N/A   Clear
1:54 AM 27.0 °F - 23.0 °F 85% 29.73 in 9.0 mi Calm Calm - N/A   Clear
2:54 AM 27.0 °F 23.0 °F 23.0 °F 85% 29.74 in 9.0 mi South 3.5 mph - N/A   Overcast
3:54 AM 28.0 °F - 24.1 °F 85% 29.72 in 9.0 mi Calm Calm - N/A   Overcast
4:54 AM 28.0 °F - 25.0 °F 88% 29.73 in 10.0 mi Calm Calm - N/A   Overcast
5:38 AM 28.0 °F - 24.1 °F 85% 29.72 in 1.8 mi Calm Calm - 0.00 in Snow Light Snow
5:44 AM 28.9 °F - 25.0 °F 85% 29.72 in 2.0 mi Calm Calm - 0.00 in Snow Light Snow
5:54 AM 28.9 °F - 25.0 °F 85% 29.74 in 2.5 mi Calm Calm - 0.00 in Snow Light Snow
6:24 AM 28.0 °F - 26.1 °F 92% 29.72 in 2.0 mi Calm Calm - 0.00 in Snow Light Snow
6:45 AM 28.9 °F - 26.1 °F 89% 29.71 in 2.5 mi Calm Calm - 0.01 in Snow Light Snow
6:54 AM 28.0 °F - 25.0 °F 88% 29.73 in 3.0 mi Calm Calm - 0.01 in Snow Light Snow
7:54 AM 28.9 °F - 26.1 °F 89% 29.72 in 4.0 mi Calm Calm - 0.00 in   Overcast
8:14 AM 28.9 °F - 27.0 °F 92% 29.70 in 1.8 mi Calm Calm - 0.00 in Snow Light Snow
8:29 AM 30.0 °F - 27.0 °F 88% 29.70 in 1.0 mi Calm Calm - 0.00 in Snow Light Snow
8:47 AM 30.0 °F - 27.0 °F 88% 29.70 in 0.8 mi Calm Calm - 0.00 in Snow Light Snow
8:54 AM 30.0 °F 26.5 °F 27.0 °F 88% 29.73 in 0.8 mi North 3.5 mph - 0.01 in Snow Light Snow
9:15 AM 30.9 °F 27.5 °F 27.0 °F 85% 29.70 in 0.5 mi North 3.5 mph - 0.01 in Fog , Snow Snow
9:54 AM 30.9 °F 25.2 °F 28.0 °F 89% 29.72 in 0.8 mi North 5.8 mph - 0.03 in Snow Light Snow
10:08 AM 32.0 °F 26.4 °F 28.0 °F 85% 29.69 in 0.8 mi North 5.8 mph - 0.01 in Snow Light Snow
10:19 AM 32.0 °F 27.5 °F 28.0 °F 85% 29.69 in 1.0 mi North 4.6 mph - 0.01 in Snow Light Snow
10:33 AM 30.9 °F 25.2 °F 28.0 °F 89% 29.68 in 0.8 mi North 5.8 mph - 0.02 in Snow Light Snow
10:46 AM 30.9 °F 23.5 °F 28.0 °F 89% 29.67 in 0.8 mi North 8.1 mph - 0.03 in Snow Light Snow
10:54 AM 30.9 °F 22.8 °F 27.0 °F 85% 29.70 in 0.8 mi North 9.2 mph - 0.03 in Snow Light Snow
11:02 AM 30.9 °F 22.8 °F 27.0 °F 85% 29.67 in 0.8 mi North 9.2 mph - 0.01 in Snow Light Snow
11:39 AM 28.9 °F 21.1 °F 25.0 °F 85% 29.66 in 0.8 mi North 8.1 mph - 0.02 in Snow Light Snow
11:54 AM 28.9 °F 19.8 °F 24.1 °F 82% 29.69 in 0.8 mi North 10.4 mph - 0.03 in Snow Light Snow
12:09 PM 28.9 °F 21.1 °F 25.0 °F 85% 29.65 in 0.5 mi North 8.1 mph - 0.01 in Fog , Snow Snow
12:47 PM 28.0 °F 19.3 °F 24.1 °F 85% 29.64 in 0.5 mi North 9.2 mph - 0.03 in Fog , Snow Snow
12:54 PM 28.0 °F 18.1 °F 24.1 °F 85% 29.67 in 0.5 mi North 11.5 mph - 0.04 in Fog , Snow Snow
1:05 PM 27.0 °F 16.1 °F 23.0 °F 85% 29.63 in 0.5 mi North 12.7 mph - 0.01 in Fog , Snow Snow
1:54 PM 25.0 °F 14.2 °F 19.9 °F 81% 29.62 in 0.5 mi NNE 11.5 mph - 0.04 in Snow Snow
2:54 PM 23.0 °F 13.1 °F 18.0 °F 81% 29.55 in 0.5 mi North 9.2 mph - 0.05 in Snow Snow
3:08 PM 21.9 °F 10.4 °F 18.0 °F 85% 29.50 in 0.2 mi North 11.5 mph - 0.01 in Fog , Snow Snow
3:54 PM 21.0 °F 10.6 °F 16.0 °F 81% 29.52 in 0.5 mi North 9.2 mph - 0.06 in Snow Snow
4:54 PM 19.9 °F 8.6 °F 16.0 °F 85% 29.45 in 0.2 mi North 10.4 mph - 0.08 in Fog , Snow Heavy Snow
5:51 PM 19.4 °F 8.6 °F 15.8 °F 86% 29.40 in 0.2 mi North 9.2 mph 19.6 mph 0.09 in Fog , Snow Heavy Snow
5:54 PM 19.0 °F 6.8 °F 15.1 °F 85% 29.43 in 0.2 mi North 11.5 mph - 0.10 in Fog , Snow Heavy Snow
6:25 PM 19.0 °F 5.6 °F 15.1 °F 85% 29.37 in 0.2 mi North 13.8 mph 20.7 mph 0.06 in Fog , Snow Snow
6:54 PM 19.0 °F 7.5 °F 15.1 °F 85% 29.42 in 0.8 mi North 10.4 mph - 0.09 in Snow Light Snow
7:54 PM 19.0 °F 6.1 °F 15.1 °F 85% 29.38 in 0.5 mi North 12.7 mph 19.6 mph 0.05 in Fog , Snow Snow
8:35 PM 19.0 °F 6.1 °F 15.1 °F 85% 29.35 in 1.0 mi North 12.7 mph 20.7 mph 0.03 in Snow Light Snow
8:54 PM 19.9 °F 6.7 °F 15.1 °F 81% 29.39 in 0.8 mi North 13.8 mph 21.9 mph 0.04 in Snow Light Snow
9:15 PM 19.9 °F 6.7 °F 15.1 °F 81% 29.34 in 0.5 mi North 13.8 mph 25.3 mph 0.01 in Snow Snow
9:39 PM 19.0 °F 5.6 °F 15.1 °F 85% 29.33 in 0.2 mi North 13.8 mph 21.9 mph 0.03 in Fog , Snow Heavy Snow
9:54 PM 19.0 °F 7.5 °F 15.1 °F 85% 29.36 in 0.5 mi North 10.4 mph 20.7 mph 0.04 in Fog , Snow Snow
10:08 PM 19.0 °F 4.5 °F 14.0 °F 81% 29.34 in 1.0 mi North 16.1 mph 23.0 mph 0.01 in Snow Light Snow
10:19 PM 19.0 °F 6.1 °F 14.0 °F 81% 29.34 in 1.5 mi North 12.7 mph 20.7 mph 0.01 in Snow Light Snow
10:28 PM 19.0 °F 4.5 °F 12.9 °F 77% 29.35 in 1.5 mi North 16.1 mph 24.2 mph 0.01 in Snow Light Snow
10:40 PM 18.0 °F 3.1 °F 12.0 °F 78% 29.33 in 1.0 mi North 16.1 mph 25.3 mph 0.01 in Snow Light Snow
10:49 PM 17.6 °F 3.7 °F 12.2 °F 79% 29.34 in 0.8 mi North 13.8 mph 28.8 mph 0.01 in Snow Light Snow
10:54 PM 17.1 °F 0.6 °F 12.0 °F 81% 29.37 in 0.5 mi North 19.6 mph 25.3 mph 0.01 in   Haze
11:08 PM 16.0 °F 1.1 °F 10.9 °F 81% 29.35 in 0.8 mi North 15.0 mph 24.2 mph N/A   Haze
11:54 PM 16.0 °F 1.1 °F 10.9 °F 81% 29.38 in 0.5 mi North 15.0 mph 31.1 mph 0.01 in   Haze